Regional Weather Roundup
Issued by NWS

Home | Current Version | Previous Version | Text Only | Print | Product List | Glossary Off
Versions: 1 2 3 4 5 6 7 8 9 10 11 12 13 14 15 16 17 18 19 20 21 22 23 24 25 26 27 28 29 30 31 32 33 34 35 36 37 38 39 40 41 42 43 44 45 46 47 48 49 50

000
ASUS43 KTOP 020559
RWRKS

WEATHER ROUNDUP FOR KANSAS
NATIONAL WEATHER SERVICE GOODLAND KS
100 AM CDT SUN AUG 02 2015

NOTE:  "FAIR" INDICATES FEW OR NO CLOUDS BELOW 12,000 FEET WITH NO
SIGNIFICANT WEATHER AND/OR OBSTRUCTIONS TO VISIBILITY.

KSZ001>006-013>018-027>032-041>047-020700-
NORTHWEST KANSAS

CITY           SKY/WX    TMP DP  RH WIND       PRES   REMARKS
GOODLAND       CLOUDY    68  61  78 S6        30.04S
6HR MIN TEMP:  68; 6HR MAX TEMP:  87;

HAYS           MOCLDY    73  63  68 S7        29.96F
HILL CITY      MOCLDY    75  66  73 S7        29.96F
6HR MIN TEMP:  75; 6HR MAX TEMP:  92;

RUSSELL        PTCLDY    72  67  84 S8        29.95S
6HR MIN TEMP:  72; 6HR MAX TEMP:  90;

$$

KSZ061>065-074>080-084>089-020700-
SOUTHWEST KANSAS

CITY           SKY/WX    TMP DP  RH WIND       PRES   REMARKS
DODGE CITY     MOCLDY    72  67  84 S7        30.01S
6HR MIN TEMP:  72; 6HR MAX TEMP:  87;

ELKHART          N/A     73  66  78 S7          N/A
GARDEN CITY    CLOUDY    72  67  84 S7        30.00F
6HR MIN TEMP:  72; 6HR MAX TEMP:  86;

GREAT BEND     PTCLDY    73  66  78 S10       29.96F
LIBERAL        CLOUDY    72  64  78 S8        30.01F
$$

KSZ066>073-081>083-090>101-020700-
SOUTHEAST KANSAS

CITY           SKY/WX    TMP DP  RH WIND       PRES   REMARKS
CHANUTE        CLEAR     72  67  84 S7        29.99S
6HR MIN TEMP:  71; 6HR MAX TEMP:  89;

COFFEYVILLE    CLEAR     69  67  93 CALM      29.99S
6HR MIN TEMP:  69; 6HR MAX TEMP:  90;

HUTCHINSON     PTCLDY    77  69  76 S7        29.98S
6HR MIN TEMP:  77; 6HR MAX TEMP:  89;

MEDICINE LODGE   N/A     75  71  87 S7        29.98S
NEWTON         PTCLDY    75  64  69 S8        30.00F
PARSONS        CLEAR     70  69  97 CALM      30.00S
6HR MIN TEMP:  70; 6HR MAX TEMP:  88;

WICHITA INTL   MOCLDY    76  69  79 S7        29.98S
6HR MIN TEMP:  76; 6HR MAX TEMP:  89;

WICHITA JABRA  MOCLDY    75  69  81 S8        29.98F
6HR MIN TEMP:  75; 6HR MAX TEMP:  88;

WINFIELD       MOCLDY    74  68  81 S7        30.00S
6HR MIN TEMP:  74; 6HR MAX TEMP:  87;

$$

KSZ007>012-019>026-033>040-048>060-102>105-020700-
NORTHEAST KANSAS

CITY           SKY/WX    TMP DP  RH WIND       PRES   REMARKS
CONCORDIA      PTCLDY    77  68  73 S12       29.94S
6HR MIN TEMP:  77; 6HR MAX TEMP:  90;

EMPORIA        CLEAR     74  70  87 S8        29.97F
6HR MIN TEMP:  74; 6HR MAX TEMP:  90;

LAWRENCE       CLEAR     70  66  87 SE6       29.97S
6HR MIN TEMP:  70; 6HR MAX TEMP:  89;

MANHATTAN      PTCLDY    77  70  79 SW8       29.94S
6HR MIN TEMP:  75; 6HR MAX TEMP:  91;

OLATHE IND     CLEAR     71  64  78 SE6       29.99S
6HR MIN TEMP:  71; 6HR MAX TEMP:  85;

OLATHE EXE     CLEAR     70  64  81 S6        29.98F
6HR MIN TEMP:  69; 6HR MAX TEMP:  84;

SALINA         PTCLDY    77  70  79 S7        29.94F
6HR MIN TEMP:  75; 6HR MAX TEMP:  92;

TOPEKA BILLARD PTCLDY    75  69  81 E3        29.96S
6HR MIN TEMP:  75; 6HR MAX TEMP:  91;

TOPEKA FORBES  PTCLDY    77  69  76 SE7       29.96S
6HR MIN TEMP:  77; 6HR MAX TEMP:  92;

$$



USA.gov is the U.S. government's official web portal to all federal, state and local government web resources and services.